Regional Weather Roundup
Issued by NWS

Home | Current Version | Previous Version | Graphics & Text | Print | Product List | Glossary Off
Versions: 1 2 3 4 5 6 7 8 9 10 11 12 13 14 15 16 17 18 19 20 21 22 23 24 25 26 27 28 29 30 31 32 33 34 35 36 37 38 39 40 41 42 43 44 45 46 47 48 49 50

000
ASUS43 KMPX 230701
RWRMN
WEATHER ROUNDUP FOR MINNESOTA
NATIONAL WEATHER SERVICE TWIN CITIES/CHANHASSEN MN
200 AM CDT TUE SEP 23 2014


NOTE: "FAIR" INDICATES FEW OR NO CLOUDS BELOW 12,000 FEET WITH NO
SIGNIFICANT WEATHER AND/OR OBSTRUCTIONS TO VISIBILITY. N/A MEANS
CURRENT SKY AND/OR WEATHER CONDITIONS ARE NOT AVAILABLE.

MNZ060>063-068>070-230800-
   Twin Cities Metro

CITY           SKY/WX    TMP DP  RH WIND       PRES   REMARKS
TWIN CITIES    CLEAR     55  50  83 SE3       30.19R
ST PAUL        CLEAR     54  52  93 CALM      30.20R
CRYSTAL        CLEAR     51  48  89 CALM      30.18R
BLAINE         CLEAR     54  52  94 S5        30.19R
LAKEVILLE      CLEAR     46  46 100 CALM      30.19S
EDEN PRAIRIE   CLEAR     55  49  80 CALM      30.18R
SOUTH ST PAUL  CLEAR     53  51  93 CALM      30.19S
LAKE ELMO      FAIR      46  46 100 CALM      30.21R FOG
$$
MNZ001>005-007-008-013>017-022>024-027-028-230800-
   Northwest Minnesota

CITY           SKY/WX    TMP DP  RH WIND       PRES   REMARKS
BEMIDJI        CLEAR     46  44  95 CALM      30.12S
HALLOCK        CLEAR     52  48  87 SE7       30.02S
ROSEAU         CLEAR     54  46  76 S7        30.07R
WARROAD        CLEAR     54  50  87 S3        30.08R
THIEF RVR FALL CLEAR     54  48  82 S7        30.07S
CROOKSTON      CLEAR     52  48  87 SE9       30.06S
FOSSTON        CLEAR     54  50  87 SE7       30.10S
DETROIT LAKES  CLEAR     54  50  87 SE6       30.12R
MOORHEAD       CLEAR     57  52  82 SE9       30.07S
PARK RAPIDS    CLEAR     50  48  93 SE5       30.13R
MAHNOMEN       FAIR      53  47  81 SE6       30.09S
$$
MNZ006-009>011-018-025>026-230800-
   North Central Minnesota

CITY           SKY/WX    TMP DP  RH WIND       PRES   REMARKS
BAUDETTE       CLEAR     50  47  89 CALM      30.09R
FLAG ISLAND    CLEAR     57  54  88 S6        30.06R
INTL FALLS     CLEAR     43  42  97 CALM      30.11S
WASKISH        CLEAR     54  48  82 CALM      30.11S
BIG FORK       CLEAR     43  43 100 CALM      30.15R
LONGVILLE      CLEAR     43  43 100 CALM      30.14R
GRAND RAPIDS   CLEAR     46  45  93 S5        30.15S
CRANE LAKE     CLEAR     41  41 100 CALM      30.15R
ORR            CLEAR     52  46  82 CALM      30.12S
COOK           CLEAR     48  46  93 CALM      30.15S
WALKER         FAIR      52  47  82 S3        30.13S
$$
MNZ012-019>021-037-230800-
   Northeast Minnesota

CITY           SKY/WX    TMP DP  RH WIND       PRES   REMARKS
DULUTH         CLEAR     55  48  77 W8        30.16R
ELY            CLEAR     45  43  93 CALM      30.15S
HIBBING        CLEAR     41  39  93 CALM      30.16R FOG
EVELETH        CLEAR     41  41 100 CALM      30.17R FOG
DULUTH HARBOR  CLEAR     55  52  88 SW6       30.16S
TWO HARBORS    CLEAR     54  46  76 CALM      30.14R
SILVER BAY     CLEAR     45  45 100 CALM      30.13S
GRAND MARAIS     N/A     58  49  72 VRB6      30.10R
G MARAIS ARPRT CLEAR     55  46  71 W6        30.15S
$$
MNZ029>031-032-039>041-046>048-054>057-064-230800-
   West Central Minnesota

CITY           SKY/WX    TMP DP  RH WIND       PRES   REMARKS
FERGUS FALLS   CLEAR     55  46  71 SE9       30.10S
WHEATON        CLEAR     52  46  82 SE10      30.10R
MORRIS         CLEAR     52  48  87 SE8       30.11S
ALEXANDRIA     CLEAR     51  46  83 S6        30.14S
ELBOW LAKE     FAIR      54  48  81 SE8       30.11S
WADENA         CLEAR     50  45  81 CALM      30.13R
GLENWOOD       CLEAR     52  46  82 SE8       30.14S
APPLETON       CLEAR     54  46  76 SE6       30.11S
BENSON         CLEAR     52  46  82 S7        30.13S
ORTONVILLE     CLEAR     52  46  82 SE7       30.09S
MADISON        CLEAR     54  48  82 SE8       30.11R
WILLMAR        FAIR      50  45  81 SE3       30.16S
$$
MNZ033>034-036-042>043-049>051-058-059-230800-
   Central Minnesota

CITY           SKY/WX    TMP DP  RH WIND       PRES   REMARKS
ST CLOUD       CLEAR     50  47  89 SE5       30.17R
SAUK CENTRE    FAIR      49  46  89 SE5       30.16R
PAYNESVILLE    CLEAR     51  47  87 SE6       30.16S
AITKIN         CLEAR     48  43  81 CALM      30.14S
PINE RIVER     CLEAR     45  45 100 CALM      30.17S
BRAINERD       FOG       45  45 100 CALM      30.16R VSB 1
STAPLES        CLEAR     45  45 100 CALM      30.14R
LONG PRAIRIE   FAIR      46  45  93 SE3       30.15S
LITTLE FALLS   CLEAR     46  46 100 CALM      30.16R
LITCHFIELD     CLEAR     55  52  88 CALM      30.17S
BUFFALO        CLEAR     51  46  85 CALM      30.19R
MAPLE LAKE     CLEAR     49  49  98 CALM      30.19R
$$
MNZ037-044-045-052-053-230800-
   East Central Minnesota

CITY           SKY/WX    TMP DP  RH WIND       PRES   REMARKS
PRINCETON      CLEAR     52  50  93 SE2       30.18R
MORA           CLEAR     45  45 100 CALM      30.19R
CAMBRIDGE      CLEAR     55  46  71 S5        30.16R
RUSH CITY      PTCLDY    47  46  97 CALM      30.18S
MOOSE LAKE     FOG       43  43 100 CALM      30.16R VSB 1/2
HINCKLEY       FAIR      43  43 100 CALM      30.18R
CLOQUET        CLEAR     48  46  93 CALM      30.17R
MCGREGOR       CLEAR     46  45  93 CALM      30.17R
$$
MNZ071>073-080-081-089-090-097-098-230800-
   Southwest Minnesota

CITY           SKY/WX    TMP DP  RH WIND       PRES   REMARKS
MONTEVIDEO     CLEAR     52  48  87 S7        30.14S
GRANITE FALLS  CLEAR     51  47  86 SE7       30.15S
CANBY          CLEAR     52  48  86 E6        30.12R
MARSHALL       CLEAR     54  45  71 S9        30.12R
REDWOOD FALLS  CLEAR     51  47  86 S7        30.15F
OLIVIA         CLEAR     52  46  82 S7        30.15S
PIPESTONE      PTCLDY    55  48  76 S7        30.14R
WINDOM         CLEAR     54  48  82 S3        30.17S
WORTHINGTON    PTCLDY    54  46  76 S8        30.17S
JACKSON        CLEAR     52  46  82 S6        30.18S
TRACY          CLEAR     55  49  81 S10       30.14S
SLAYTON        PTCLDY    48  47  95 CALM      30.16R
$$
MNZ065>067-074>077-082>085-091>093-230800-
   South Central Minnesota

CITY           SKY/WX    TMP DP  RH WIND       PRES   REMARKS
MANKATO        CLEAR     54  45  71 S8        30.19S
NEW ULM        CLEAR     50  48  93 S6        30.18R
ST JAMES       CLEAR     48  45  87 SE3       30.19S
FAIRMONT       CLEAR     46  41  81 S5        30.19S
GLENCOE        CLEAR     51  46  83 CALM      30.17S
FARIBAULT      CLEAR     48  43  81 CALM      30.21R
OWATONNA       CLEAR     54  46  76 S5        30.21R
WASECA         CLEAR     45  41  87 CALM      30.22R
ALBERT LEA     CLEAR     54  48  82 S3        30.21S
$$
MNZ078>079-086>088-094>096-230800-
   Southeast Minnesota

CITY           SKY/WX    TMP DP  RH WIND       PRES   REMARKS
ROCHESTER      CLEAR     49  45  86 S7        30.23R
RED WING       CLEAR     48  46  93 E3        30.20S
STANTON        CLEAR     51  47  86 CALM      30.19S
DODGE CENTER   CLEAR     48  46  93 CALM      30.21S
WINONA         CLEAR     50  50 100 CALM      30.23R FOG
AUSTIN         CLEAR     48  45  87 CALM      30.22S
PRESTON        CLEAR     51  49  95 SW7       30.23S
$$
ABBREVIATIONS USED IN REMARKS
   TC - TEMPERATURES IN CELSIUS
  WCI - WIND CHILL INDEX
   HX - HEAT INDEX
  VSB - VISIBILITY
$$


USA.gov is the U.S. government's official web portal to all federal, state and local government web resources and services.